Monte Cimone, Italy

3:42 AM CEST on June 24, 2017 (GMT +0200)
Monte Cimone

Weather History for LIVC - July, 2013

Change the Weather History Date:

Monday, July 29, 2013

  Actual Average Record
Temperature  
Mean Temperature 58 °F -  
Max Temperature 64 °F 55 °F 87 °F (1998)
Min Temperature 53 °F 46 °F 41 °F (2010)
Degree Days  
Heating Degree Days 6    
Growing Degree Days 8 (Base 50)    
Moisture  
Dew Point 48 °F    
Average Humidity 69    
Maximum Humidity 94    
Minimum Humidity 39    
Precipitation  
Precipitation 0.16 in 0.10 in - ()
Sea Level Pressure  
Sea Level Pressure 30.29 in    
Wind  
Wind Speed 24 mph ()    
Max Wind Speed 44 mph    
Max Gust Speed -    
Visibility 4.4 miles    
Events Fog , Rain    
Averages and records for this station are not official NWS values.
T = Trace of Precipitation, MM = Missing Value Source: Averaged Metar Reports

Daily Weather History Graph

Daily Weather History Graph

Search for Another Location

Airport or City:

Trip Planner

Search our weather history database for the weather conditions in past years. The results will help you decide how hot, cold, wet, or windy it might be!

Date:

Astronomy

Jul. 29, 2013 Rise Set
Actual Time 6:01 AM CEST 8:45 PM CEST
Civil Twilight 5:28 AM CEST 9:18 PM CEST
Nautical Twilight 4:45 AM CEST 10:00 PM CEST
Astronomical Twilight 3:56 AM CEST 10:49 PM CEST
Moon No Moon Rise 1:46 PM CEST (7/29)
Length of Visible Light 15h 50m
Length of Day
14h 43m
Waning Gibbous, 53% of the Moon is Illuminated
Jul 29
Waning Gibbous
Jul 29
Last Quarter
Aug 6
New
Aug 14
First Quarter
Aug 21
Full

Hourly Weather History & Observations

Time (CEST) Temp. Dew Point Humidity Pressure Visibility Wind Dir Wind Speed Gust Speed Precip Events Conditions
12:55 AM 62.6 °F 44.6 °F 52% 30.39 in - SW 23.0 mph - N/A   Clear
1:55 AM 62.6 °F 44.6 °F 52% 30.39 in - SW 25.3 mph - N/A   Clear
2:00 AM 63 °F 44 °F 39%  in 19 mi SW 25.3 mph - -  
2:55 AM 64.4 °F 46.4 °F 52% 30.39 in - SW 23.0 mph - N/A   Clear
3:55 AM 62.6 °F 46.4 °F 55% 30.39 in - SW 20.7 mph - N/A   Clear
4:55 AM 60.8 °F 41.0 °F 48% 30.39 in - SW 20.7 mph - N/A   Clear
5:55 AM 60.8 °F 42.8 °F 52% 30.36 in - SW 18.4 mph - N/A   Clear
6:55 AM 59.0 °F 42.8 °F 55% 30.36 in - SW 20.7 mph - N/A   Clear
7:55 AM 59.0 °F 42.8 °F 55% 30.33 in - SW 23.0 mph - N/A   Clear
8:00 AM 60 °F 44 °F 43%  in 19 mi SW 23.0 mph - -   Partly Cloudy
8:55 AM 57.2 °F 51.8 °F 82% 30.33 in 6.2 mi SW 25.3 mph - N/A   Scattered Clouds
9:55 AM 59.0 °F 50.0 °F 72% 30.33 in - SW 28.8 mph - N/A   Clear
10:55 AM 59.0 °F 48.2 °F 67% 30.30 in 6.2 mi SW 34.5 mph - N/A   Partly Cloudy
11:55 AM 59.0 °F 50.0 °F 72% 30.30 in 6.2 mi SW 38.0 mph - N/A   Scattered Clouds
12:55 PM 55.4 °F 51.8 °F 88% 30.27 in 0.0 mi SW 43.7 mph - N/A Fog , Rain Light Rain
1:55 PM 53.6 °F 51.8 °F 94% 30.18 in 0.0 mi SW 39.1 mph - N/A Fog , Rain Light Rain
2:00 PM 54 °F 52 °F 91%  in 0 mi SW 39.1 mph - - Rain Light Rain
2:55 PM 62.6 °F 60.8 °F 94% 30.15 in 0.0 mi SW 40.3 mph - N/A Fog Fog
3:55 PM 57.2 °F 53.6 °F 88% 30.15 in 0.1 mi SW 40.3 mph - N/A   Unknown
4:55 PM 55.4 °F 51.8 °F 88% 30.15 in 0.0 mi SW 36.8 mph - N/A Fog Fog
5:55 PM 53.6 °F 50.0 °F 88% 30.21 in 0.3 mi SW 34.5 mph - N/A Fog Fog
6:55 PM 53.6 °F 48.2 °F 82% 30.21 in 0.1 mi SW 32.2 mph - N/A Fog Fog